CAPE
1 2 1 5 4 5 5 4 2 1 0 0 0 2 1 0 0 0 0 0 0 0 0 0 0 0 0 0 0 0 0 0 0 0 0 0 0 0 0 0 0 0 0
1 7 9 6 5 6 3 1 0 0 1 2 2 1 0 0 0 0 0 0 0 0 0 0 0 0 0 0 0 0 0 0 0 0 0 0 0 0 0 0 0 0 0
8 9 10 9 4 4 3 1 1 1 2 2 2 0 1 0 0 0 0 0 0 0 0 0 0 0 0 0 0 0 0 0 0 0 0 0 0 0 0 0 0 0 0
12 10 8 6 5 3 2 2 2 3 2 2 1 0 0 0 0 0 0 0 0 0 0 0 0 0 0 0 0 0 0 0 0 0 0 0 0 0 0 0 0 0 0
7 6 6 4 3 3 3 4 3 2 2 0 0 0 0 0 0 0 0 0 0 0 0 0 0 0 0 0 0 0 0 0 0 0 0 0 0 0 0 0 0 0 0
7 6 3 4 3 4 4 3 1 1 0 0 0 0 0 0 0 0 0 0 0 0 0 0 0 0 0 0 0 0 0 0 0 0 0 0 0 0 0 0 0 0 0
3 2 3 3 4 4 3 2 1 0 0 0 0 0 0 0 0 0 0 0 0 0 0 0 0 0 0 0 0 0 0 0 0 0 0 0 0 0 0 0 0 0 0
2 2 2 3 3 3 2 2 0 0 0 0 0 0 0 0 0 0 0 0 0 0 0 0 0 0 0 0 0 0 0 0 0 0 0 0 0 0 0 0 0 0 0
1 2 2 3 3 3 3 0 0 0 0 0 0 0 0 0 0 0 0 0 0 0 0 0 0 0 1 1 0 0 0 0 0 0 0 0 0 0 0 0 0 0 0
2 2 1 1 3 2 0 0 0 0 0 0 0 0 0 0 0 0 0 0 0 0 0 0 0 0 0 0 0 0 0 0 0 0 0 0 0 0 0 0 0 0 0
1 1 1 1 0 0 0 0 0 0 0 0 0 0 0 0 0 0 0 0 0 0 0 0 0 0 0 0 0 0 0 0 0 0 0 0 0 0 0 0 0 0 0
0 0 0 0 0 0 0 0 0 0 0 0 0 0 0 0 0 1 2 1 0 0 0 0 0 0 0 0 0 0 0 0 0 0 0 0 0 0 0 0 0 0 0
0 0 0 0 0 0 0 0 0 0 0 0 0 0 0 0 0 1 0 0 0 0 0 0 0 0 0 0 0 0 0 0 0 0 0 0 0 0 0 0 0 0 0
0 0 0 0 0 0 0 0 0 0 0 0 0 0 0 0 0 0 0 0 0 0 0 0 0 0 0 0 0 0 0 0 0 0 0 0 0 0 0 0 0 0 0
0 0 0 0 0 0 0 0 0 0 0 0 0 0 0 0 0 0 0 0 0 0 0 0 0 0 0 0 0 0 0 0 0 0 0 0 0 0 0 0 0 0 0
0 0 0 0 0 0 0 0 0 0 0 0 0 0 0 0 1 0 0 0 0 0 0 0 0 0 0 0 0 0 0 0 0 0 0 0 0 0 0 0 0 0 0
0 0 0 0 0 0 0 0 0 0 0 0 1 1 0 0 0 0 0 0 0 0 0 0 0 0 0 0 0 0 0 0 0 0 0 0 0 0 0 0 0 0 0
0 0 0 0 0 0 0 0 0 0 0 0 0 0 0 0 0 0 0 0 0 0 0 0 0 0 0 0 0 0 0 0 0 0 0 0 0 0 0 0 0 0 0
0 0 0 0 0 0 0 0 0 0 0 0 0 0 0 0 0 0 0 0 0 0 0 0 0 0 0 0 0 0 0 0 0 0 0 0 0 0 0 0 0 0 0
0 0 0 0 0 0 0 0 0 0 0 0 0 0 0 0 0 0 0 0 0 0 0 0 0 0 0 0 0 0 0 0 0 0 0 0 0 0 0 0 0 0 0
0 0 0 0 0 0 0 0 0 0 0 0 0 0 0 0 0 0 0 0 0 0 0 0 0 0 0 0 0 0 0 0 0 0 0 0 0 0 0 0 0 0 0
0 0 0 0 0 0 0 0 0 0 0 0 0 0 0 0 0 0 0 0 0 0 0 0 0 0 0 0 0 0 0 0 0 0 0 0 0 0 0 0 0 0 0
0 0 0 0 0 0 0 0 0 0 0 0 0 0 0 0 0 0 0 0 0 0 0 0 0 0 0 0 0 0 0 0 0 0 0 0 0 0 0 0 0 0 0
0 0 0 0 0 0 0 0 0 0 0 0 0 0 0 0 0 0 0 0 0 0 0 0 0 0 0 0 0 0 0 0 0 0 0 0 0 0 0 0 0 0 0
0 0 0 0 0 0 0 0 0 0 0 0 0 0 0 0 0 0 0 0 0 0 0 0 0 0 0 0 0 0 0 0 0 0 0 0 0 0 0 0 0 0 0
0 0 0 0 0 0 0 0 0 0 0 0 0 0 0 0 0 0 0 0 0 0 0 0 0 0 0 0 0 0 0 0 0 0 0 0 0 0 0 0 0 0 0
CIN
-0 -0 -0 -0 -0 -0 -0 -0 -0 -0 -0 -0 -0 -0 -0 -0 -0 -0 -0 -0 -0 -0 -0 -0 -0 -0 -0 -0 -0 -0 -0 -0 -0 -0 -0 -0 -0 -0 -0 -0 -0 -0 -0
-0 -0 -0 -0 -0 -0 -0 -0 -0 -0 -0 -0 -0 -0 -0 -0 -0 -0 -0 -0 -0 -0 -0 -0 -0 -0 -0 -0 -0 -0 -0 -0 -0 -0 -0 -0 -0 -0 -0 -0 -0 -0 -0
-0 -0 -0 -0 -0 -0 -0 -0 -0 -0 -0 -0 -0 -0 -0 -0 -0 -0 -0 -0 -0 -0 -0 -0 -0 -0 -0 -0 -0 -0 -0 -0 -0 -0 -0 -0 -0 -0 -0 -0 -0 -0 -0
-0 -0 -0 -0 -0 -0 -0 -0 -0 -0 -0 -0 -0 -0 -0 -0 -0 -0 -0 -0 -0 -0 -0 -0 -0 -0 -0 -0 -0 -0 -0 -0 -0 -0 -0 -0 -0 -0 -0 -0 -0 -0 -0
-0 -0 -0 -0 -0 -0 -0 -0 -0 -0 -0 -0 -0 -0 -0 -0 -0 -0 -0 -0 -0 -0 -0 -0 -0 -0 -0 -0 -0 -0 -0 -0 -0 -0 -0 -0 -0 -0 -0 -0 -0 -0 -0
-0 -0 -0 -0 -0 -0 -0 -0 -0 -0 -0 -0 -0 -0 -0 -0 -0 -0 -0 -0 -0 -0 -0 -0 -0 -0 -0 -0 -0 -0 -0 -0 -0 -0 -0 -0 -0 -0 -0 -0 -0 -0 -0
-0 -0 -0 -0 -0 -0 -0 -0 -0 -0 -0 -0 -0 -0 -0 -0 -0 -0 -0 -0 -0 -0 -0 -0 -0 -0 -0 -0 -0 -0 -0 -0 -0 -0 -0 -0 -0 -0 -0 -0 -0 -0 -0
-0 -0 -0 -0 -0 -0 -0 -0 -0 -0 -0 -0 -0 -0 -0 -0 -0 -0 -0 -0 -0 -0 -0 -0 -0 -0 -0 -0 -0 -0 -0 -0 -0 -0 -0 -0 -0 -0 -0 -0 -0 -0 -0
-0 -0 -0 -0 -0 -0 -0 -0 -0 -0 -0 -0 -0 -0 -0 -0 -0 -0 -0 -0 -0 -0 -0 -0 -0 -0 -0 -0 -0 -0 -0 -0 -0 -0 -0 -0 -0 -0 -0 -0 -0 -0 -0
-0 -0 -0 -0 -0 -0 -0 -0 -0 -0 -0 -0 -0 -0 -0 -0 -0 -0 -0 -0 -0 -0 -0 -0 -0 -0 -0 -0 -0 -0 -0 -0 -0 -0 -0 -0 -0 -0 -0 -0 -0 -0 -0
-0 -0 -0 -0 -0 -0 -0 -0 -0 -0 -0 -0 -0 -0 -0 -0 -0 -0 -0 -0 -0 -0 -0 -0 -0 -0 -0 -0 -0 -0 -0 -0 -0 -0 -0 -0 -0 -0 -0 -0 -0 -0 -0
-0 -0 -0 -0 -0 -0 -0 -0 -0 -0 -0 -0 -0 -0 -0 -0 -0 -0 -0 -0 -0 -0 -0 -0 -0 -0 -0 -0 -0 -0 -0 -0 -0 -0 -0 -0 -0 -0 -0 -0 -0 -0 -0
-0 -0 -0 -0 -0 -0 -0 -0 -0 -0 -0 -0 -0 -0 -0 -0 -0 -0 -0 -0 -0 -0 -0 -0 -0 -0 -0 -0 -0 -0 -0 -0 -0 -0 -0 -0 -0 -0 -0 -0 -0 -0 -0
-0 -0 -0 -0 -0 -0 -0 -0 -0 -0 -0 -0 -0 -0 -0 -0 -0 -0 -0 -0 -0 -0 -0 -0 -0 -0 -0 -0 -0 -0 -0 -0 -0 -0 -0 -0 -0 -0 -0 -0 -0 -0 -0
-0 -0 -0 -0 -0 -0 -0 -0 -0 -0 -0 -0 -0 -0 -0 -0 -0 -0 -0 -0 -0 -0 -0 -0 -0 -0 -0 -0 -0 -0 -0 -0 -0 -0 -0 -0 -0 -0 -0 -0 -0 -0 -0
-0 -0 -0 -0 -0 -0 -0 -0 -0 -0 -0 -0 -0 -0 -0 -0 -0 -0 -0 -0 -0 -0 -0 -0 -0 -0 -0 -0 -0 -0 -0 -0 -0 -0 -0 -0 -0 -0 -0 -0 -0 -0 -0
-0 -0 -0 -0 -0 -0 -0 -0 -0 -0 -0 -0 -0 -0 -0 -0 -0 -0 -0 -0 -0 -0 -0 -0 -0 -0 -0 -0 -0 -0 -0 -0 -0 -0 -0 -0 -0 -0 -0 -0 -0 -0 -0
-0 -0 -0 -0 -0 -0 -0 -0 -0 -0 -0 -0 -0 -0 -0 -0 -0 -0 -0 -0 -0 -0 -0 -0 -0 -0 -0 -0 -0 -0 -0 -0 -0 -0 -0 -0 -0 -0 -0 -0 -0 -0 -0
-0 -0 -0 -0 -0 -0 -0 -0 -0 -0 -0 -0 -0 -0 -0 -0 -0 -0 -0 -0 -0 -0 -0 -0 -0 -0 -0 -0 -0 -0 -0 -0 -0 -0 -0 -0 -0 -0 -0 -0 -0 -0 -0
-0 -0 -0 -0 -0 -0 -0 -0 -0 -0 -0 -0 -0 -0 -0 -0 -0 -0 -0 -0 -0 -0 -0 -0 -0 -0 -0 -0 -0 -0 -0 -0 -0 -0 -0 -0 -0 -0 -0 -0 -0 -0 -0
-0 -0 -0 -0 -0 -0 -0 -0 -0 -0 -0 -0 -0 -0 -0 -0 -0 -0 -0 -0 -0 -0 -0 -0 -0 -0 -0 -0 -0 -0 -0 -0 -0 -0 -0 -0 -0 -0 -0 -0 -0 -0 -0
-0 -0 -0 -0 -0 -0 -0 -0 -0 -0 -0 -0 -0 -0 -0 -0 -0 -0 -0 -0 -0 -0 -0 -0 -0 -0 -0 -0 -0 -0 -0 -0 -0 -0 -0 -0 -0 -0 -0 -0 -0 -0 -0
-0 -0 -0 -0 -0 -0 -0 -0 -0 -0 -0 -0 -0 -0 -0 -0 -0 -0 -0 -0 -0 -0 -0 -0 -0 -0 -0 -0 -0 -0 -0 -0 -0 -0 -0 -0 -0 -0 -0 -0 -0 -0 -0
-0 -0 -0 -0 -0 -0 -0 -0 -0 -0 -0 -0 -0 -0 -0 -0 -0 -0 -0 -0 -0 -0 -0 -0 -0 -0 -0 -0 -0 -0 -0 -0 -0 -0 -0 -0 -0 -0 -0 -0 -0 -0 -0
-0 -0 -0 -0 -0 -0 -0 -0 -0 -0 -0 -0 -0 -0 -0 -0 -0 -0 -0 -0 -0 -0 -0 -0 -0 -0 -0 -0 -0 -0 -0 -0 -0 -0 -0 -0 -0 -0 -0 -0 -0 -0 -0
-0 -0 -0 -0 -0 -0 -0 -0 -0 -0 -0 -0 -0 -0 -0 -0 -0 -0 -0 -0 -0 -0 -0 -0 -0 -0 -0 -0 -0 -0 -0 -0 -0 -0 -0 -0 -0 -0 -0 -0 -0 -0 -0
Wind_Speed
29 25 21 19 14 13 15 15 16 12 9 7 3 2 1 4 6 6 7 7 8 9 10 11 12 15 17 19 21 23 25 26 28 27 26 28 27 31 35 35 37 39 39
28 25 21 16 12 12 10 10 11 10 8 5 4 2 3 5 5 7 7 8 8 9 10 11 14 16 18 21 22 23 24 25 27 29 28 30 30 32 35 38 39 39 41
23 23 21 17 14 10 8 7 6 8 7 6 4 4 5 8 8 8 8 8 9 10 11 12 14 17 19 20 22 25 26 26 27 28 31 31 34 36 37 40 41 42 43
19 20 19 16 13 10 7 6 7 8 7 5 6 4 7 9 10 11 9 9 10 11 13 15 16 17 18 21 24 25 26 27 28 31 33 35 37 38 40 45 48 45 47
15 15 15 13 12 9 8 9 9 9 8 7 8 7 9 10 10 10 9 9 10 12 15 16 17 18 20 22 22 23 25 28 29 32 35 38 41 44 47 47 49 49 48
12 12 12 12 10 10 11 11 10 9 10 8 12 13 11 9 9 10 10 11 13 13 14 16 18 19 19 21 23 24 24 28 31 35 39 42 44 45 46 48 49 53 56
12 11 13 14 13 13 13 13 11 10 10 10 12 13 11 10 11 13 15 14 14 14 16 16 17 18 20 22 23 24 27 30 32 35 39 41 43 45 46 47 47 50 51
15 13 16 17 16 16 15 12 11 11 11 12 11 11 11 12 16 15 14 14 15 16 17 16 17 19 21 21 23 26 28 30 33 34 35 37 39 41 42 43 45 47 48
15 16 17 19 18 17 16 15 14 13 10 10 10 11 15 16 14 14 14 15 15 16 16 16 18 21 23 25 26 29 31 33 32 32 34 37 39 40 40 42 47 50 53
19 18 19 17 19 19 18 14 11 10 10 12 16 16 14 14 14 14 14 15 15 15 17 19 20 22 25 27 28 30 35 36 34 35 37 38 39 39 38 39 41 47 47
20 20 19 19 18 15 13 10 11 12 17 16 15 14 14 14 14 15 15 15 14 16 17 20 23 25 27 28 29 33 34 32 36 38 39 40 39 38 38 37 37 39 41
16 15 14 13 13 12 15 15 17 17 17 14 13 12 13 14 15 16 16 16 16 17 19 22 25 26 28 30 31 33 34 34 37 39 41 41 41 40 39 38 36 34 30
13 11 11 13 16 18 20 17 15 12 12 12 12 12 13 14 16 15 16 18 19 20 21 24 26 28 30 31 33 34 35 36 38 41 43 41 39 40 40 40 36 33 29
14 15 13 15 14 10 11 11 12 11 11 11 11 11 12 13 13 15 17 19 20 21 23 25 28 29 30 31 33 34 35 36 39 41 41 41 41 41 43 41 41 37 33
16 13 11 12 15 13 11 11 11 10 10 10 10 11 11 11 12 14 17 20 21 22 24 27 30 31 35 36 38 37 36 38 41 41 42 44 44 43 43 41 38 36 32
12 12 14 14 13 11 11 11 12 11 11 11 11 11 13 13 14 17 20 21 22 24 27 29 33 35 37 38 39 39 39 41 42 42 42 44 44 44 44 41 38 35 33
11 12 12 10 10 10 9 9 10 11 11 11 12 13 14 15 17 19 21 21 24 25 29 31 35 37 38 38 40 41 43 42 41 42 44 43 43 42 42 42 39 35 33
9 9 9 9 8 8 9 9 9 9 10 12 16 16 16 17 18 20 21 23 25 28 30 34 37 38 39 40 41 42 43 43 43 42 43 42 41 41 42 40 38 36 34
9 9 10 10 10 9 9 10 11 12 12 14 15 17 19 20 20 21 23 26 29 31 34 37 38 39 40 40 41 41 42 43 43 43 42 41 40 40 40 38 38 36 34
10 10 11 10 10 10 10 11 13 14 15 16 17 18 19 20 22 23 25 27 30 33 36 39 39 39 39 41 41 41 43 43 44 43 42 40 40 39 39 39 38 37 35
11 11 10 10 10 11 13 14 15 16 17 18 18 18 19 21 24 26 27 31 33 36 37 39 40 40 40 41 41 42 42 44 43 42 41 40 40 40 38 37 36 35 35
10 11 11 12 12 12 12 12 13 14 16 17 18 18 20 22 25 27 30 32 33 34 36 38 40 40 40 40 41 42 43 45 43 41 40 39 39 39 38 37 36 36 35
10 10 11 12 12 12 13 13 13 14 15 15 17 19 21 23 26 28 30 32 34 36 37 38 39 40 38 38 38 39 41 43 40 39 40 40 39 38 37 37 37 36 36
9 10 10 10 10 11 12 13 14 15 15 16 17 19 21 23 26 28 31 33 35 36 37 38 38 39 40 40 39 38 38 38 37 37 37 38 38 37 37 36 36 35 35
8 8 7 7 8 8 9 10 11 12 13 15 17 20 22 24 26 29 31 33 35 37 38 38 38 39 40 41 40 40 39 38 37 36 36 35 36 36 36 36 35 34 34
6 6 6 6 6 6 7 9 10 11 13 16 18 20 22 25 28 31 33 35 37 38 38 39 40 40 41 40 40 40 40 39 38 36 35 35 36 36 35 34 32 31 31
Wind_Direction
233 235 239 233 229 224 232 230 232 229 217 216 222 215 5 348 5 16 36 43 52 44 37 32 16 3 355 352 352 351 351 347 341 341 342 343 342 341 340 340 339 337 337
228 230 232 231 239 230 231 227 224 214 199 209 177 150 58 45 41 48 53 55 50 43 38 23 3 358 354 353 359 359 356 353 345 340 343 342 340 340 339 337 338 338 336
223 225 227 231 233 238 226 200 211 200 194 165 155 101 90 81 75 67 59 49 40 33 16 8 5 2 4 9 2 354 352 350 349 344 341 343 340 339 338 337 336 335 335
216 219 221 222 219 216 206 182 165 183 161 136 119 97 88 90 83 79 63 46 25 11 10 12 19 19 10 1 357 355 354 351 349 346 343 341 340 339 338 335 334 334 333
198 201 207 204 197 188 174 169 150 151 126 134 107 94 86 82 79 74 60 38 27 23 33 28 21 13 8 7 3 358 356 353 350 346 342 340 338 338 336 336 333 333 333
179 177 175 174 176 165 154 147 136 143 115 115 101 91 84 67 66 59 49 47 57 46 29 18 16 14 13 8 3 360 359 354 349 345 341 339 338 338 338 336 334 333 332
145 153 153 156 145 136 138 135 128 126 115 106 95 86 74 65 61 59 67 61 46 30 25 20 19 15 9 4 3 2 357 353 350 345 341 341 340 340 338 336 335 333 331
124 131 127 128 136 130 122 125 126 114 110 95 82 74 68 62 75 69 52 41 35 27 25 25 16 11 7 5 1 356 352 351 349 347 347 345 343 342 339 337 336 334 333
122 115 117 119 123 119 115 113 108 104 94 81 69 64 69 72 65 56 50 39 29 24 24 20 16 11 3 358 354 351 350 348 350 350 348 345 343 341 340 339 337 336 335
106 109 105 110 110 110 107 108 102 93 81 72 72 66 61 58 58 52 36 30 28 27 22 15 10 3 358 356 354 352 348 349 351 349 346 344 344 343 343 342 340 337 338
96 98 103 100 101 104 105 103 91 82 81 72 67 58 53 47 40 28 26 27 29 20 15 7 1 358 356 355 354 351 350 352 350 347 345 345 344 344 343 343 342 340 338
104 106 104 103 95 94 89 84 84 83 82 72 61 47 32 30 28 30 28 25 19 15 7 2 359 357 356 354 353 352 351 351 348 346 345 345 344 344 343 342 341 339 337
95 93 92 83 79 82 88 83 76 67 65 60 56 50 40 30 25 29 25 17 12 8 4 0 358 356 354 353 353 352 352 350 348 347 345 345 344 343 342 341 340 339 337
76 74 72 73 69 57 54 56 69 64 61 56 54 53 40 33 32 23 15 10 7 3 1 359 356 354 354 353 353 352 351 350 348 346 345 344 343 344 342 342 340 340 337
71 65 57 58 68 61 42 46 43 30 45 52 45 41 36 28 20 14 9 2 359 359 357 355 353 353 351 350 350 350 349 349 347 346 344 343 342 342 341 342 340 339 335
62 61 72 72 59 51 49 35 17 25 26 30 31 24 16 14 14 4 1 359 358 357 355 352 350 349 349 348 348 348 348 347 346 345 344 343 342 342 341 342 341 338 334
59 66 62 50 46 54 49 49 39 17 14 14 11 8 4 0 359 357 357 357 356 356 352 349 347 347 347 347 346 346 344 345 345 344 343 343 343 342 342 343 343 341 337
26 24 32 29 28 29 23 15 16 16 9 359 351 352 353 353 354 354 353 353 351 351 349 347 345 345 345 345 345 344 344 344 344 344 343 343 342 342 342 343 343 341 339
15 5 355 355 355 0 356 351 348 347 346 344 344 344 344 347 349 351 352 349 347 346 345 344 343 343 343 343 343 343 342 342 343 342 342 342 342 342 341 341 341 339 337
355 348 347 346 345 344 342 339 335 333 332 334 335 338 341 343 343 344 346 345 344 343 342 340 340 341 341 342 342 342 342 342 342 342 342 341 341 341 340 340 340 339 337
355 351 351 348 340 334 331 330 330 329 329 330 332 337 339 338 337 339 341 340 340 340 339 338 338 339 340 340 341 341 341 340 341 341 341 340 340 339 340 339 338 338 337
0 357 350 344 343 341 337 335 334 332 331 330 332 335 336 336 336 337 337 337 338 338 338 337 337 338 339 339 340 340 339 339 340 340 339 339 339 339 339 339 338 338 337
4 358 352 346 342 340 339 339 338 336 334 333 333 333 334 334 334 335 335 336 337 337 338 338 337 338 339 339 339 339 338 338 338 338 337 337 338 338 338 337 337 336 337
5 359 354 352 347 342 340 337 337 336 334 332 332 332 333 333 333 333 334 335 336 337 337 338 338 337 338 338 339 338 337 336 337 336 335 335 335 336 336 336 335 335 334
16 14 12 9 4 358 354 348 342 338 335 334 332 332 332 331 331 332 333 335 336 336 337 337 337 337 337 337 337 337 336 335 335 334 335 334 333 333 334 334 334 334 335
49 43 34 26 14 4 353 344 338 335 331 331 330 330 330 330 331 332 333 334 334 335 335 336 336 337 337 337 337 337 337 337 336 334 333 333 332 332 333 332 331 332 334